EW2790 Weather Reports


Display with metric or nautical units.
time (UTC)temp
F
wind
direction
speed
MPH
gust
MPH
rain 1hr
in
rain 24hr
in
rain mn
in
humidity
%
barometer
mb
20260504044549 0 0.0 0.0 0.00 0.00 0.00 1016.4
20260504043045 0 0.0 0.0 0.00 0.00 0.00 1016.4
20260504041541 0 0.0 0.0 0.00 0.00 0.00 1016.4
20260504040036 0 0.0 0.0 0.00 0.00 0.00 1016.2
20260504034531 0 0.0 0.0 0.00 0.00 0.00 1016.2
20260504033029 0 0.0 0.0 0.00 0.00 0.00 1016.1
20260504031523 0 0.0 0.0 0.00 0.00 0.00 1015.8
20260504030019 0 0.0 0.0 0.00 0.00 0.00 1015.7
20260504024514 0 0.0 0.0 0.00 0.00 0.00 1015.9
20260504023009 0 0.0 0.0 0.00 0.00 0.00 1015.7
20260504021505 0 0.0 0.0 0.00 0.00 0.00 1015.9
20260504020001 0 0.0 0.0 0.00 0.00 0.00 1015.6
20260504014557 0 0.0 0.0 0.00 0.00 0.00 1015.5
20260504013052 0 0.0 0.0 0.00 0.00 0.00 1015.4
20260504011548 0 0.0 0.0 0.00 0.00 0.00 1015.3
20260504010044 0 0.0 0.0 0.00 0.00 0.00 1015.3
20260504004540 0 0.0 0.0 0.00 0.00 0.00 1015.2
20260504003041 0 0.0 0.0 0.00 0.00 0.00 1015.0
20260504001530 0 0.0 0.0 0.00 0.00 0.00 1015.0
20260504000026 0 0.0 0.0 0.00 0.00 0.00 1014.9
20260503234521 0 0.0 0.0 0.00 0.00 0.00 1015.0
20260503233017 63 160 0.0 0.0 0.00 0.00 0.00 57 1015.0
20260503231515 63 160 0.0 0.0 0.00 0.00 0.00 52 1015.0
20260503230013 64 160 0.0 0.0 0.00 0.00 0.00 54 1015.1
20260503224518 65 160 0.0 0.0 0.00 0.00 0.00 47 1015.1
20260503223008 65 153 0.0 0.0 0.00 0.00 0.00 47 1015.2
20260503221508 65 91 0.0 0.0 0.00 0.00 0.00 45 1015.3
20260503220013 66 165 0.0 0.0 0.00 0.00 0.00 45 1015.4
20260503214502 65 155 0.0 0.0 0.00 0.00 0.00 48 1015.5
20260503213100 65 290 0.0 0.0 0.00 0.00 0.00 49 1015.7
20260503211603 65 292 0.0 0.0 0.00 0.00 0.00 48 1016.0
20260503210055 65 290 0.0 0.0 0.00 0.00 0.00 46 1016.2
20260503204554 65 231 0.0 0.0 0.00 0.00 0.00 46 1016.4
20260503203047 65 13 0.0 0.0 0.00 0.00 0.00 45 1016.5
20260503201544 66 203 0.0 0.0 0.00 0.00 0.00 42 1016.9
20260503200042 66 327 0.0 0.0 0.00 0.00 0.00 44 1017.1
20260503194538 65 235 0.0 0.0 0.00 0.00 0.00 48 1017.4
20260503193036 64 28 0.0 0.0 0.00 0.00 0.00 47 1017.5
20260503191533 64 355 0.0 0.0 0.00 0.00 0.00 45 1017.7
20260503190037 64 11 0.0 0.0 0.00 0.00 0.00 44 1018.1
20260503184534 64 202 0.0 0.0 0.00 0.00 0.00 47 1018.2
20260503183027 63 61 0.0 0.0 0.00 0.00 0.00 51 1018.3
20260503181526 62 5 0.0 0.0 0.00 0.00 0.00 49 1018.4
20260503180029 62 5 0.0 0.0 0.00 0.00 0.00 49 1018.6
20260503174529 61 304 0.0 0.0 0.00 0.00 0.00 55 1018.7
20260503173031 61 227 0.0 0.0 0.00 0.00 0.00 56 1018.9
20260503171520 60 190 0.0 0.0 0.00 0.00 0.00 51 1019.2
20260503081600 0 0.0 0.0 0.00 0.00 0.00 1017.4
20260503071556 0 0.0 0.0 0.00 0.00 0.00 1016.8